Time,TemperatureF,DewpointF,PressureIn,WindDirection,WindDirectionDegrees,WindSpeedMPH,WindSpeedGustMPH,Humidity,HourlyPrecipIn,Conditions,Clouds,dailyrainin,SoftwareType,DateUTC
2013-12-03 00:11:00,28.8,22.0,29.89,ESE,123,1.0,-999.0,77,-99.99,,,0.00,weatherlink.com 1.10,2013-12-03 05:11:00,
2013-12-03 00:26:00,28.6,23.0,29.89,ESE,121,0.0,-999.0,78,-99.99,,,0.00,weatherlink.com 1.10,2013-12-03 05:26:00,
2013-12-03 00:41:00,28.4,23.0,29.89,ESE,121,2.0,-999.0,79,-99.99,,,0.00,weatherlink.com 1.10,2013-12-03 05:41:00,
2013-12-03 00:56:00,28.1,22.0,29.89,ESE,121,0.0,-999.0,79,-99.99,,,0.00,weatherlink.com 1.10,2013-12-03 05:56:00,
2013-12-03 01:11:00,28.0,23.0,29.89,ESE,121,1.0,-999.0,80,-99.99,,,0.00,weatherlink.com 1.10,2013-12-03 06:11:00,
2013-12-03 01:26:00,27.9,23.0,29.89,ESE,106,1.0,-999.0,80,-99.99,,,0.00,weatherlink.com 1.10,2013-12-03 06:26:00,
2013-12-03 01:41:00,27.9,23.0,29.89,ESE,113,2.0,-999.0,81,-99.99,,,0.00,weatherlink.com 1.10,2013-12-03 06:41:00,
2013-12-03 01:56:00,28.3,24.0,29.89,SE,127,4.0,-999.0,82,-99.99,,,0.00,weatherlink.com 1.10,2013-12-03 06:56:00,
2013-12-03 02:11:00,28.7,24.0,29.88,ESE,121,2.0,-999.0,82,-99.99,,,0.00,weatherlink.com 1.10,2013-12-03 07:11:00,
2013-12-03 02:26:00,28.9,24.0,29.88,SE,131,4.0,-999.0,83,-99.99,,,0.00,weatherlink.com 1.10,2013-12-03 07:26:00,
2013-12-03 02:41:00,29.0,25.0,29.88,SE,128,4.0,-999.0,83,-99.99,,,0.00,weatherlink.com 1.10,2013-12-03 07:41:00,
2013-12-03 02:56:00,28.8,25.0,29.88,ESE,121,0.0,-999.0,84,-99.99,,,0.00,weatherlink.com 1.10,2013-12-03 07:56:00,
2013-12-03 03:11:00,28.6,25.0,29.88,SE,126,5.0,-999.0,85,-99.99,,,0.00,weatherlink.com 1.10,2013-12-03 08:11:00,
2013-12-03 03:26:00,28.7,25.0,29.88,ESE,114,1.0,-999.0,85,-99.99,,,0.00,weatherlink.com 1.10,2013-12-03 08:26:00,
2013-12-03 03:41:00,28.8,25.0,29.88,SSE,152,4.0,-999.0,86,-99.99,,,0.00,weatherlink.com 1.10,2013-12-03 08:41:00,
2013-12-03 03:56:00,29.0,25.0,29.88,ESE,109,1.0,-999.0,86,-99.99,,,0.00,weatherlink.com 1.10,2013-12-03 08:56:00,
2013-12-03 04:11:00,29.3,26.0,29.89,East,101,1.0,-999.0,86,-99.99,,,0.00,weatherlink.com 1.10,2013-12-03 09:11:00,
2013-12-03 04:26:00,29.6,26.0,29.88,SE,126,1.0,-999.0,87,-99.99,,,0.00,weatherlink.com 1.10,2013-12-03 09:26:00,
2013-12-03 04:41:00,29.9,26.0,29.88,ESE,109,2.0,-999.0,86,-99.99,,,0.00,weatherlink.com 1.10,2013-12-03 09:41:00,
2013-12-03 04:56:00,30.2,26.0,29.87,SSE,148,2.0,-999.0,85,-99.99,,,0.00,weatherlink.com 1.10,2013-12-03 09:56:00,
2013-12-03 05:11:00,30.5,27.0,29.87,SE,135,7.0,-999.0,85,-99.99,,,0.00,weatherlink.com 1.10,2013-12-03 10:11:00,
2013-12-03 05:26:00,30.7,26.0,29.85,SE,126,4.0,-999.0,84,-99.99,,,0.00,weatherlink.com 1.10,2013-12-03 10:26:00,
2013-12-03 05:41:00,30.7,27.0,29.86,SE,126,5.0,-999.0,85,-99.99,,,0.00,weatherlink.com 1.10,2013-12-03 10:41:00,
2013-12-03 05:56:00,30.8,27.0,29.85,SSE,150,6.0,-999.0,85,-99.99,,,0.00,weatherlink.com 1.10,2013-12-03 10:56:00,
2013-12-03 06:11:00,30.9,27.0,29.86,SE,126,1.0,-999.0,84,-99.99,,,0.00,weatherlink.com 1.10,2013-12-03 11:11:00,
2013-12-03 06:26:00,31.0,27.0,29.87,SE,132,4.0,-999.0,84,-99.99,,,0.00,weatherlink.com 1.10,2013-12-03 11:26:00,
2013-12-03 06:41:00,31.1,27.0,29.87,SSE,152,4.0,-999.0,84,-99.99,,,0.00,weatherlink.com 1.10,2013-12-03 11:41:00,
2013-12-03 06:56:00,31.3,27.0,29.86,SSE,152,2.0,-999.0,84,-99.99,,,0.00,weatherlink.com 1.10,2013-12-03 11:56:00,
2013-12-03 07:11:00,31.5,27.0,29.87,SSE,153,2.0,-999.0,84,-99.99,,,0.00,weatherlink.com 1.10,2013-12-03 12:11:00,
2013-12-03 07:26:00,31.8,28.0,29.87,South,180,4.0,-999.0,84,-99.99,,,0.00,weatherlink.com 1.10,2013-12-03 12:26:00,
2013-12-03 07:41:00,32.0,28.0,29.86,South,191,3.0,-999.0,84,-99.99,,,0.00,weatherlink.com 1.10,2013-12-03 12:41:00,
2013-12-03 07:56:00,32.0,28.0,29.86,SSE,159,2.0,-999.0,85,-99.99,,,0.00,weatherlink.com 1.10,2013-12-03 12:56:00,
2013-12-03 08:11:00,31.9,28.0,29.86,SSW,198,7.0,-999.0,86,-99.99,,,0.00,weatherlink.com 1.10,2013-12-03 13:11:00,
2013-12-03 08:27:00,32.2,28.0,29.87,South,175,4.0,-999.0,85,-99.99,,,0.00,weatherlink.com 1.10,2013-12-03 13:27:00,
2013-12-03 08:42:00,32.3,28.0,29.88,SSW,211,7.0,-999.0,85,-99.99,,,0.00,weatherlink.com 1.10,2013-12-03 13:42:00,
2013-12-03 08:57:00,32.3,29.0,29.87,SSE,162,6.0,-999.0,87,-99.99,,,0.00,weatherlink.com 1.10,2013-12-03 13:57:00,
2013-12-03 09:12:00,32.3,29.0,29.86,South,169,11.0,-999.0,88,-99.99,,,0.00,weatherlink.com 1.10,2013-12-03 14:12:00,
2013-12-03 09:27:00,32.5,30.0,29.87,SSE,148,4.0,-999.0,89,-99.99,,,0.00,weatherlink.com 1.10,2013-12-03 14:27:00,
2013-12-03 09:42:00,32.6,30.0,29.87,South,184,4.0,-999.0,90,-99.99,,,0.00,weatherlink.com 1.10,2013-12-03 14:42:00,
2013-12-03 09:57:00,32.8,30.0,29.86,South,170,4.0,-999.0,90,-99.99,,,0.00,weatherlink.com 1.10,2013-12-03 14:57:00,
2013-12-03 10:12:00,33.1,31.0,29.86,SSW,204,5.0,-999.0,91,-99.99,,,0.00,weatherlink.com 1.10,2013-12-03 15:12:00,
2013-12-03 10:27:00,33.4,31.0,29.86,SSE,153,8.0,-999.0,90,-99.99,,,0.00,weatherlink.com 1.10,2013-12-03 15:27:00,
2013-12-03 10:42:00,33.8,32.0,29.87,SSW,199,6.0,-999.0,91,-99.99,,,0.01,weatherlink.com 1.10,2013-12-03 15:42:00,
2013-12-03 10:57:00,33.9,31.0,29.89,SSW,195,9.0,-999.0,90,-99.99,,,0.01,weatherlink.com 1.10,2013-12-03 15:57:00,
2013-12-03 11:12:00,34.1,32.0,29.88,SSW,197,5.0,-999.0,90,-99.99,,,0.01,weatherlink.com 1.10,2013-12-03 16:12:00,
2013-12-03 11:27:00,34.3,32.0,29.87,SSW,203,4.0,-999.0,90,-99.99,,,0.01,weatherlink.com 1.10,2013-12-03 16:27:00,
2013-12-03 11:42:00,34.6,32.0,29.87,SSW,201,6.0,-999.0,90,-99.99,,,0.01,weatherlink.com 1.10,2013-12-03 16:42:00,
2013-12-03 11:57:00,34.8,32.0,29.87,SSW,205,5.0,-999.0,90,-99.99,,,0.01,weatherlink.com 1.10,2013-12-03 16:57:00,
2013-12-03 12:12:00,35.0,32.0,29.86,SSW,198,7.0,-999.0,90,-99.99,,,0.01,weatherlink.com 1.10,2013-12-03 17:12:00,
2013-12-03 12:27:00,35.1,33.0,29.86,SSW,207,7.0,-999.0,90,-99.99,,,0.01,weatherlink.com 1.10,2013-12-03 17:27:00,
2013-12-03 12:42:00,35.3,33.0,29.86,South,184,2.0,-999.0,90,-99.99,,,0.01,weatherlink.com 1.10,2013-12-03 17:42:00,
2013-12-03 12:57:00,35.5,33.0,29.85,SSW,200,7.0,-999.0,90,-99.99,,,0.01,weatherlink.com 1.10,2013-12-03 17:57:00,
2013-12-03 13:12:00,35.6,33.0,29.84,SW,224,6.0,-999.0,91,-99.99,,,0.01,weatherlink.com 1.10,2013-12-03 18:12:00,
2013-12-03 13:27:00,35.7,34.0,29.84,SSW,205,9.0,-999.0,92,-99.99,,,0.01,weatherlink.com 1.10,2013-12-03 18:27:00,
2013-12-03 13:42:00,35.7,34.0,29.83,South,184,6.0,-999.0,92,-99.99,,,0.01,weatherlink.com 1.10,2013-12-03 18:42:00,
2013-12-03 13:57:00,35.9,34.0,29.82,South,175,4.0,-999.0,92,-99.99,,,0.01,weatherlink.com 1.10,2013-12-03 18:57:00,
2013-12-03 14:12:00,35.8,34.0,29.82,South,180,3.0,-999.0,92,-99.99,,,0.01,weatherlink.com 1.10,2013-12-03 19:12:00,
2013-12-03 14:27:00,36.0,34.0,29.82,SSW,201,6.0,-999.0,92,-99.99,,,0.01,weatherlink.com 1.10,2013-12-03 19:27:00,
2013-12-03 14:42:00,36.1,34.0,29.82,SSW,205,10.0,-999.0,93,-99.99,,,0.01,weatherlink.com 1.10,2013-12-03 19:42:00,
2013-12-03 14:57:00,36.1,34.0,29.82,SSW,200,7.0,-999.0,93,-99.99,,,0.01,weatherlink.com 1.10,2013-12-03 19:57:00,
2013-12-03 15:12:00,36.1,34.0,29.83,South,177,6.0,-999.0,93,-99.99,,,0.01,weatherlink.com 1.10,2013-12-03 20:12:00,
2013-12-03 15:27:00,36.3,35.0,29.82,South,170,4.0,-999.0,93,-99.99,,,0.01,weatherlink.com 1.10,2013-12-03 20:27:00,
2013-12-03 15:42:00,36.3,35.0,29.82,South,187,5.0,-999.0,93,-99.99,,,0.01,weatherlink.com 1.10,2013-12-03 20:42:00,
2013-12-03 15:57:00,36.4,35.0,29.83,South,188,5.0,-999.0,93,-99.99,,,0.01,weatherlink.com 1.10,2013-12-03 20:57:00,
2013-12-03 16:12:00,36.5,35.0,29.83,SSE,159,4.0,-999.0,93,-99.99,,,0.01,weatherlink.com 1.10,2013-12-03 21:12:00,
2013-12-03 16:27:00,36.5,35.0,29.83,SSW,197,7.0,-999.0,94,-99.99,,,0.01,weatherlink.com 1.10,2013-12-03 21:27:00,
2013-12-03 16:42:00,36.5,35.0,29.83,SSW,198,4.0,-999.0,94,-99.99,,,0.01,weatherlink.com 1.10,2013-12-03 21:42:00,
2013-12-03 16:57:00,36.5,35.0,29.83,South,173,5.0,-999.0,94,-99.99,,,0.01,weatherlink.com 1.10,2013-12-03 21:57:00,
2013-12-03 17:12:00,36.4,35.0,29.83,SSW,209,13.0,-999.0,94,-99.99,,,0.01,weatherlink.com 1.10,2013-12-03 22:12:00,
2013-12-03 17:27:00,36.4,35.0,29.83,SSW,202,4.0,-999.0,94,-99.99,,,0.01,weatherlink.com 1.10,2013-12-03 22:27:00,
2013-12-03 17:42:00,36.4,35.0,29.83,South,169,5.0,-999.0,94,-99.99,,,0.01,weatherlink.com 1.10,2013-12-03 22:42:00,
2013-12-03 17:57:00,36.4,35.0,29.82,SSW,192,3.0,-999.0,94,-99.99,,,0.01,weatherlink.com 1.10,2013-12-03 22:57:00,
2013-12-03 18:12:00,36.4,35.0,29.82,South,190,5.0,-999.0,95,-99.99,,,0.01,weatherlink.com 1.10,2013-12-03 23:12:00,
2013-12-03 18:27:00,36.4,35.0,29.83,SSE,157,9.0,-999.0,95,-99.99,,,0.01,weatherlink.com 1.10,2013-12-03 23:27:00,
2013-12-03 18:42:00,36.3,35.0,29.82,South,190,7.0,-999.0,94,-99.99,,,0.01,weatherlink.com 1.10,2013-12-03 23:42:00,
2013-12-03 18:57:00,36.3,35.0,29.82,South,191,6.0,-999.0,94,-99.99,,,0.01,weatherlink.com 1.10,2013-12-03 23:57:00,
2013-12-03 19:27:00,36.4,35.0,29.82,South,181,4.0,-999.0,94,-99.99,,,0.01,weatherlink.com 1.10,2013-12-04 00:27:00,
2013-12-03 19:42:00,36.4,35.0,29.82,South,184,6.0,-999.0,94,-99.99,,,0.01,weatherlink.com 1.10,2013-12-04 00:42:00,
2013-12-03 19:57:00,36.5,35.0,29.82,South,191,4.0,-999.0,94,-99.99,,,0.01,weatherlink.com 1.10,2013-12-04 00:57:00,
2013-12-03 20:12:00,36.5,35.0,29.82,SSW,203,2.0,-999.0,94,-99.99,,,0.01,weatherlink.com 1.10,2013-12-04 01:12:00,
2013-12-03 20:27:00,36.5,35.0,29.82,South,185,4.0,-999.0,94,-99.99,,,0.01,weatherlink.com 1.10,2013-12-04 01:27:00,
2013-12-03 20:42:00,36.6,35.0,29.81,South,187,3.0,-999.0,94,-99.99,,,0.01,weatherlink.com 1.10,2013-12-04 01:42:00,
2013-12-03 20:57:00,36.7,35.0,29.82,South,176,6.0,-999.0,94,-99.99,,,0.01,weatherlink.com 1.10,2013-12-04 01:57:00,
2013-12-03 21:12:00,36.8,35.0,29.82,South,176,6.0,-999.0,94,-99.99,,,0.01,weatherlink.com 1.10,2013-12-04 02:12:00,
2013-12-03 21:28:00,36.8,35.0,29.82,SSW,201,3.0,-999.0,94,-99.99,,,0.01,weatherlink.com 1.10,2013-12-04 02:28:00,
2013-12-03 21:43:00,36.9,35.0,29.82,SSE,159,6.0,-999.0,93,-99.99,,,0.01,weatherlink.com 1.10,2013-12-04 02:43:00,
2013-12-03 21:58:00,36.8,35.0,29.80,SSW,200,7.0,-999.0,94,-99.99,,,0.01,weatherlink.com 1.10,2013-12-04 02:58:00,
2013-12-03 22:13:00,37.0,36.0,29.81,South,183,5.0,-999.0,94,-99.99,,,0.01,weatherlink.com 1.10,2013-12-04 03:13:00,
2013-12-03 22:28:00,37.3,36.0,29.81,SE,142,4.0,-999.0,94,-99.99,,,0.01,weatherlink.com 1.10,2013-12-04 03:28:00,
2013-12-03 22:43:00,37.5,36.0,29.80,South,171,4.0,-999.0,94,-99.99,,,0.01,weatherlink.com 1.10,2013-12-04 03:43:00,
2013-12-03 22:58:00,37.6,36.0,29.81,South,171,7.0,-999.0,94,-99.99,,,0.01,weatherlink.com 1.10,2013-12-04 03:58:00,
2013-12-03 23:13:00,37.7,36.0,29.82,SSW,201,5.0,-999.0,94,-99.99,,,0.01,weatherlink.com 1.10,2013-12-04 04:13:00,
2013-12-03 23:28:00,37.7,36.0,29.83,SSW,203,4.0,-999.0,94,-99.99,,,0.01,weatherlink.com 1.10,2013-12-04 04:28:00,
2013-12-03 23:43:00,37.7,36.0,29.83,SSW,202,7.0,-999.0,94,-99.99,,,0.01,weatherlink.com 1.10,2013-12-04 04:43:00,
2013-12-03 23:58:00,37.8,36.0,29.84,SW,215,5.0,-999.0,94,-99.99,,,0.01,weatherlink.com 1.10,2013-12-04 04:58:00,